1998-067JD

Last updated on Mon Jun 13 2016 09:36:47 GMT+0000 (Coordinated Universal Time)

1 41483U 98067JD 16165.16446222 .00013054 00000-0 19108-3 0 9991 2 41483 51.6455 77.9114 0003259 91.9713 53.2240 15.55943979 4025

Satellite not in orbit